Weather History for K54J - May, 2014

Change the Weather History Date:

Saturday, May 17, 2014

  Actual Average (KCEW) Record (KCEW)
Temperature  
Mean Temperature 68 °F -  
Max Temperature 80 °F 86 °F 95 °F (1998)
Min Temperature 56 °F 60 °F 48 °F (2006)
Cooling Degree Days 3    
Growing Degree Days 18 (Base 50)    
Moisture  
Dew Point 55 °F    
Average Humidity 64    
Maximum Humidity 95    
Minimum Humidity 44    
Precipitation  
Precipitation 0.00 in - - ()
Sea Level Pressure  
Sea Level Pressure 30.16 in    
Wind  
Wind Speed 4 mph (South)    
Max Wind Speed 9 mph    
Max Gust Speed -    
Visibility 10 miles    
Events      
Averages and records for this station are not official NWS values.
T = Trace of Precipitation, MM = Missing Value Source: NWS Daily Summary

Daily Weather History Graph

Daily Weather History Graph

Search for Another Location

Airport or City:

Trip Planner

Search our weather history database for the weather conditions in past years. The results will help you decide how hot, cold, wet, or windy it might be!

Date:

Astronomy

May. 17, 2014 Rise Set
Actual Time 5:48 AM CDT 7:33 PM CDT
Civil Twilight 5:22 AM CDT 8:00 PM CDT
Nautical Twilight 4:50 AM CDT 8:32 PM CDT
Astronomical Twilight 4:16 AM CDT 9:06 PM CDT
Moon 10:35 PM CDT (5/17) 8:30 AM CDT (5/17)
Length of Visible Light 14h 38m
Length of Day
13h 45m
Waning Gibbous, 89% of the Moon is Illuminated
May 17
Waning Gibbous
May 21
Last Quarter
May 28
New
Jun 5
First Quarter
Jun 12
Full

Hourly Weather History & Observations

Time (CDT) Temp. Heat Index Dew Point Humidity Pressure Visibility Wind Dir Wind Speed Gust Speed Precip Events Conditions
12:15 AM 61.7 °F - 54.0 °F 76% 30.16 in 10.0 mi NE 4.6 mph - N/A   Clear
12:35 AM 59.5 °F - 53.2 °F 80% 30.17 in 10.0 mi Calm Calm - N/A   Clear
12:55 AM 60.8 °F - 52.9 °F 75% 30.16 in 10.0 mi Calm Calm - N/A   Clear
1:15 AM 59.5 °F - 50.5 °F 72% 30.16 in 10.0 mi Calm Calm - N/A   Clear
1:35 AM 58.6 °F - 51.8 °F 78% 30.16 in 10.0 mi Calm Calm - N/A   Clear
1:55 AM 57.4 °F - 51.3 °F 80% 30.16 in 10.0 mi Calm Calm - N/A   Clear
2:15 AM 58.1 °F - 52.5 °F 82% 30.16 in 10.0 mi Calm Calm - N/A   Clear
2:35 AM 60.8 °F - 51.1 °F 70% 30.16 in 10.0 mi East 3.5 mph - N/A   Clear
2:55 AM 59.0 °F - 51.3 °F 75% 30.16 in 10.0 mi East 4.6 mph - N/A   Clear
3:15 AM 59.9 °F - 49.1 °F 67% 30.16 in 10.0 mi East 4.6 mph - N/A   Clear
3:35 AM 57.7 °F - 50.7 °F 77% 30.16 in 10.0 mi Calm Calm - N/A   Mostly Cloudy
3:55 AM 57.9 °F - 50.0 °F 75% 30.16 in 10.0 mi Calm Calm - N/A   Scattered Clouds
4:15 AM 56.5 °F - 51.1 °F 82% 30.16 in 10.0 mi East 3.5 mph - N/A   Clear
4:55 AM 58.8 °F - 48.6 °F 69% 30.16 in 10.0 mi East 3.5 mph - N/A   Clear
5:15 AM 59.2 °F - 47.1 °F 64% 30.17 in 10.0 mi East 4.6 mph - N/A   Clear
5:35 AM 59.2 °F - 46.8 °F 63% 30.17 in 10.0 mi East 5.8 mph - N/A   Clear
5:55 AM 58.8 °F - 47.1 °F 65% 30.18 in 10.0 mi East 4.6 mph - N/A   Clear
6:15 AM 59.0 °F - 47.5 °F 66% 30.18 in 10.0 mi East 4.6 mph - N/A   Clear
6:35 AM 59.7 °F - 48.0 °F 65% 30.19 in 10.0 mi East 4.6 mph - N/A   Clear
6:55 AM 61.2 °F - 47.3 °F 60% 30.19 in 10.0 mi East 5.8 mph - N/A   Clear
7:15 AM 62.4 °F - 47.5 °F 58% 30.20 in 10.0 mi East 4.6 mph - N/A   Clear
7:35 AM 63.9 °F - 47.8 °F 56% 30.21 in 10.0 mi East 4.6 mph - N/A   Clear
7:55 AM 65.3 °F - 48.2 °F 54% 30.21 in 10.0 mi East 3.5 mph - N/A   Clear
8:15 AM 67.3 °F - 48.7 °F 51% 30.22 in 10.0 mi SE 3.5 mph - N/A   Clear
8:35 AM 68.4 °F - 48.6 °F 49% 30.21 in 10.0 mi SE 4.6 mph - N/A   Clear
8:55 AM 68.9 °F - 49.8 °F 51% 30.21 in 10.0 mi SSE 4.6 mph - N/A   Clear
9:15 AM 70.2 °F - 52.2 °F 53% 30.21 in 10.0 mi South 4.6 mph - N/A   Clear
9:35 AM 70.9 °F - 54.3 °F 56% 30.21 in 10.0 mi SSW 4.6 mph - N/A   Clear
9:55 AM 71.8 °F - 56.5 °F 58% 30.20 in 10.0 mi South 4.6 mph - N/A   Clear
10:15 AM 73.2 °F - 57.7 °F 58% 30.20 in 10.0 mi SW 4.6 mph - N/A   Clear
10:35 AM 73.8 °F - 56.5 °F 55% 30.20 in 10.0 mi SSW 6.9 mph - N/A   Clear
10:55 AM 74.7 °F - 56.8 °F 54% 30.20 in 10.0 mi South 6.9 mph - N/A   Clear
11:15 AM 75.2 °F - 56.7 °F 52% 30.19 in 10.0 mi Calm Calm - N/A   Scattered Clouds
11:35 AM 76.5 °F - 56.3 °F 50% 30.19 in 10.0 mi SW 6.9 mph - N/A   Scattered Clouds
11:55 AM 77.2 °F - 57.0 °F 50% 30.18 in 10.0 mi SW 6.9 mph - N/A   Scattered Clouds
12:15 PM 77.5 °F - 55.6 °F 47% 30.18 in 10.0 mi SSW 6.9 mph - N/A   Mostly Cloudy
12:35 PM 78.1 °F - 54.7 °F 44% 30.17 in 10.0 mi Calm Calm - N/A   Mostly Cloudy
12:55 PM 77.2 °F - 54.7 °F 46% 30.17 in 10.0 mi Calm Calm - N/A   Scattered Clouds
1:15 PM 77.2 °F - 56.1 °F 48% 30.16 in 10.0 mi West 3.5 mph - N/A   Scattered Clouds
1:35 PM 78.3 °F - 55.8 °F 46% 30.16 in 10.0 mi NNW 3.5 mph - N/A   Mostly Cloudy
1:55 PM 80.2 °F 80.4 °F 56.7 °F 44% 30.15 in 10.0 mi South 4.6 mph - N/A   Scattered Clouds
2:15 PM 80.2 °F 80.4 °F 56.5 °F 44% 30.14 in 10.0 mi West 4.6 mph - N/A   Scattered Clouds
2:35 PM 79.5 °F - 57.2 °F 46% 30.14 in 10.0 mi South 8.1 mph - N/A   Mostly Cloudy
2:55 PM 79.2 °F - 60.1 °F 52% 30.13 in 10.0 mi SSW 8.1 mph - N/A   Mostly Cloudy
3:15 PM 79.2 °F - 60.3 °F 52% 30.13 in 10.0 mi SSW 5.8 mph - N/A   Scattered Clouds
3:35 PM 79.0 °F - 60.1 °F 52% 30.12 in 10.0 mi SSW 9.2 mph - N/A   Clear
3:55 PM 77.4 °F - 59.5 °F 54% 30.12 in 10.0 mi South 8.1 mph - N/A   Scattered Clouds
4:15 PM 78.3 °F - 59.7 °F 53% 30.11 in 10.0 mi South 6.9 mph - N/A   Scattered Clouds
4:35 PM 78.8 °F - 60.1 °F 53% 30.12 in 10.0 mi SW 4.6 mph - N/A   Mostly Cloudy
4:55 PM 78.3 °F - 60.4 °F 54% 30.12 in 10.0 mi SSW 9.2 mph - N/A   Scattered Clouds
5:15 PM 77.7 °F - 60.4 °F 55% 30.12 in 10.0 mi WSW 9.2 mph - N/A   Scattered Clouds
5:35 PM 77.2 °F - 60.8 °F 57% 30.12 in 10.0 mi SW 9.2 mph - N/A   Clear
5:55 PM 76.3 °F - 60.4 °F 58% 30.12 in 10.0 mi SSW 8.1 mph - N/A   Clear
6:15 PM 75.4 °F - 61.0 °F 61% 30.12 in 10.0 mi SSW 6.9 mph - N/A   Clear
6:35 PM 73.9 °F - 60.8 °F 63% 30.13 in 10.0 mi South 5.8 mph - N/A   Clear
6:55 PM 73.0 °F - 60.6 °F 65% 30.13 in 10.0 mi SSW 6.9 mph - N/A   Clear
7:15 PM 71.6 °F - 60.1 °F 67% 30.13 in 10.0 mi SW 4.6 mph - N/A   Clear
7:35 PM 70.3 °F - 60.6 °F 71% 30.14 in 10.0 mi SSW 4.6 mph - N/A   Clear
7:55 PM 68.9 °F - 60.8 °F 75% 30.14 in 10.0 mi SW 3.5 mph - N/A   Clear
8:15 PM 68.2 °F - 60.1 °F 75% 30.15 in 10.0 mi SW 5.8 mph - N/A   Clear
8:35 PM 67.6 °F - 59.0 °F 74% 30.15 in 10.0 mi SSW 4.6 mph - N/A   Clear
8:55 PM 67.1 °F - 59.0 °F 75% 30.16 in 10.0 mi SW 3.5 mph - N/A   Clear
9:15 PM 66.2 °F - 59.0 °F 78% 30.16 in 10.0 mi SW 4.6 mph - N/A   Clear
9:35 PM 66.2 °F - 59.2 °F 78% 30.17 in 10.0 mi WSW 3.5 mph - N/A   Clear
9:55 PM 64.9 °F - 59.2 °F 82% 30.17 in 10.0 mi WSW 3.5 mph - N/A   Clear
10:15 PM 64.9 °F - 59.2 °F 82% 30.18 in 10.0 mi SSW 3.5 mph - N/A   Clear
10:35 PM 62.8 °F - 59.4 °F 89% 30.18 in 10.0 mi South 3.5 mph - N/A   Clear
10:55 PM 62.2 °F - 59.2 °F 90% 30.18 in 10.0 mi South 3.5 mph - N/A   Clear
11:15 PM 61.2 °F - 59.4 °F 94% 30.18 in 10.0 mi South 3.5 mph - N/A   Clear
11:35 PM 61.7 °F - 59.4 °F 92% 30.18 in 10.0 mi Calm Calm - N/A   Clear
11:55 PM 60.6 °F - 59.2 °F 95% 30.18 in 10.0 mi Calm Calm - N/A   Clear